Location: Newark
(27.9675°N, 86.8869°E)
Time: 11:13:44
(UTC+00:00)

Vanguard 2 Rocket - Visible Passes

Search period start: 14 October 2019 00:00
Search period end: 24 October 2019 00:00
Orbit: 554 x 3326 km, 32.9° (Epoch: 13 October)

Date Brightness Start Highest point End Pass type
(mag) Time Alt. Az. Time Alt. Az. Time Alt. Az.
14 Oct 9.2 12:30:07 10° W 12:37:58 26° SW 12:43:11 10° S visible
16 Oct 9.7 12:46:21 10° W 12:51:12 15° SW 12:55:02 10° SSW visible
17 Oct 10.9 23:19:05 10° SSE 23:25:16 13° SE 23:32:20 10° ESE visible
19 Oct 10.0 11:58:05 10° W 12:05:14 18° SW 12:10:33 10° SSW visible
19 Oct 10.6 23:28:43 10° S 23:38:25 23° SE 23:50:58 10° E visible
20 Oct 10.7 22:34:07 10° SE 22:38:16 12° SE 22:42:56 10° ESE visible
21 Oct 10.3 23:40:33 10° SSW 23:51:30 34° SE 00:07:03 10° E visible
22 Oct 10.3 22:43:15 10° S 22:51:20 21° SE 23:02:08 10° E visible
